OBJECT AA, 43900

Orbit data source: Space-Track

You're viewing an Uncataloged Satellite

Recently launched and/or uncataloged satellites may have evolving metadata. Metadata may include but not limited to: Owner, Maufacturer, Bus, Motor, and Mission.

OBJECT AA, 43900 is a satellite in SSO that was launched on Thu, 27 Dec 2018 UTC via a SOYUZ-2-1A launch vehicle from the Vostochny Cosmodrome (VOSTO). Unknown objects in Earth's orbit typically refer to objects detected orbiting the Earth but have not yet been identified or cataloged. These objects could be anything from previously untracked satellites, spent rocket stages, debris from satellite collisions, or even natural meteoroids temporarily captured by Earth's gravity.

Loading next visibility...
Identifier
43900, 2018-111AA
Orbit
SSO
Country
Flag of TBDTBD
Related business
None
Manufacturer
Unknown
Mission
Civil Technology
Bus & Motor
Unknown
Mass
Unknown
Launch date (UTC)
2018-12-27 (7 years ago)
Launch vehicle
SOYUZ-2-1A
Launch site
Vostochny Cosmodrome (VOSTO)
Object type
Unknown
Shape & HBR
Box, 0.1 m
Radar Cross Section
0.080 m², Medium (>0.1 m² and < 1m²)

Expand to show TLE details & history
Last TLE update: 8 hours ago

TLE from 8 hours ago
0 OBJECT AA
1 43900U 18111AA  25291.30479194  .00039122  00000-0  45964-3 0  9992
2 43900  96.9948 152.4606 0010072   6.3601 353.7783 15.61301045380602
Epoch: 2025-10-18T07:18Z
TLE epoch observation values (Epoch: 2025-10-18T07:18:54.023Z)
Latitude
-0.00008°
Longitude
15.69779°
Altitude
380.284 km
Speed
7.685 km/s
True Right ascension
10h 09m 50s
True Declination
0° 00' 00"
Sunlit
Object was in daylight at epoch
Visualization orbit readout
Latitude
Unknown
Longitude
Unknown
Altitude
Unknown
Speed
Unknown
Apparent Right ascension
Unknown
Apparent Declination
Unknown
Sunlit
N/A
Visualization observer readout
Local Sidereal Time
10:35:23
Azimuth
Unknown
Elevation
Unknown
Doppler factor
Unknown
Orbital elements
Apogee altitude
387.599 km
Perigee altitude
373.984 km
Semi-major axis
6,758.928 km
Eccentricity
0.00101
Inclination
96.9948°
RAAN
152.4606°
Arg. of periapsis
6.3601°
True anomaly
353.76578°
Mean anomaly
353.7783°
Eccentric anomaly
353.77204°
Mean motion
3.90595 °/min
Orbital period
92.17 mins
BSTAR
0.00045964
Loading maneuver chart data...
Computing Atmospheric mass density...

Documentation

Showing up to 5 results
|